星链-4130 (STARLINK-4130 )

导读 | 豆包AI

STARLINK-4130是美国太空探索技术公司(SpaceX)发射的星链(Starlink)卫星,属于星链互联网星座组网卫星之一,于2022年7月24日发射升空。它承担着为全球提供高速低延迟卫星互联网服务的任务,这类卫星部署在近地轨道,是SpaceX大规模卫星互联网组网计划的组成部分。

基本信息
目录编号:
53263
目录名称:
STARLINK-4130
国际标识:
2022-086X
轨道中心:
EARTH
卫星名称:
星链-4130
卫星全名:
星链-4130 (STARLINK-4130 )
卫星状态:
在轨 (已飞行1330 天)
发射日期:
2022-07-24 UTC
国别 :
美国 (US)
星等 :
--
轨道信息
数据来源 国际轨道数据
星历时间: 2026-03-14T21:36:49+0800
13小时前
查看轨道信息
半长轴: 6917.911km
偏心率: 0.0001116
轨道倾角: 53.218°
近地点辐角 90.601°
升交点赤经 172.225°
平近点角 269.511°
近地点: 539.001km
远地点: 540.547km
周期: 95.438分钟
每日圈数: 15.0883
详细信息
固有亮度:
5
最大亮度:
2.5
卫星平台:
Starlink v1.5
覆盖范围:
全球
运营商:
太空探索技术公司
运营商所在国:
美国
制造商(研发单位):
太空探索技术公司
制造商所在国:
美国
使用方式:
暂无
卫星简介
星链(Starlink)计划是由太空探索技术公司(SpaceX)提出的一个巨型低轨卫星互联网星座项目,计划在2019年至2024年间在太空搭建由约1.2万颗卫星组成的“星链”网络,其中1584颗将部署在地球上空550千米处的近地轨道,并从2020年开始工作。该卫星仍在工作。
2D轨道图
3D轨道图
轨道高度分析图
轨道倾角分析图
轨道综合分析图
查看轨道综合分析图